GEESAT 6-03

基本信息
目录编号:
65715
目录名称:
GEESAT 6-03
国际标识:
2025-214D
轨道中心:
EARTH
卫星名称:
GEESAT 6-03
卫星全名:
GEESAT 6-03
卫星状态:
在轨 (已飞行26 天)
发射日期:
2025-09-24 UTC
国别 :
中国 (CN)
星等 :
--
轨道信息
数据来源 国际轨道数据
星历时间: 2025-10-20T20:25:46+0800
11小时前
查看轨道信息
半长轴: 6986.668km
偏心率: 0.001569
轨道倾角: 49.983°
近地点辐角 30.334°
升交点赤经 339.919°
平近点角 329.851°
近地点: 597.57km
远地点: 619.496km
周期: 96.865分钟
每日圈数: 14.866122
详细信息
使用方式:
暂无
2D轨道图
3D轨道图
轨道高度分析图
轨道倾角分析图
轨道综合分析图
查看轨道综合分析图